Track IRIDIUM 139 now! 10-day predictions IRIDIUM 139 is classified as:
1 42963U 17061J 24325.90220785 .00000464 00000-0 15867-3 0 9992 2 42963 86.3957 264.8323 0002476 79.4654 280.6821 14.34219476372679